EW5830 Weather Reports


time (UTC)temp
F
wind
direction
speed
knots
gust
knots
rain 1hr
in
rain 24hr
in
rain mn
in
humidity
%
barometer
mb
20260506105503 52 303 0.9 2.6 0.00 0.01 0.00 84 1019.3
20260506105003 52 319 0.9 2.6 0.00 0.01 0.00 84 1019.3
20260506104503 52 319 0.9 3.5 0.00 0.01 0.00 84 1019.4
20260506104003 52 302 0.9 3.5 0.00 0.01 0.00 84 1019.3
20260506103503 52 295 0.0 2.6 0.00 0.01 0.00 84 1019.3
20260506103003 52 271 0.0 2.6 0.00 0.01 0.00 84 1019.3
20260506102503 52 250 0.9 2.6 0.00 0.01 0.00 84 1019.3
20260506102003 52 249 0.9 2.6 0.00 0.01 0.00 84 1019.2
20260506101503 52 265 0.9 2.6 0.00 0.01 0.00 84 1019.2
20260506101003 52 272 0.9 2.6 0.00 0.01 0.00 84 1019.2
20260506100503 52 267 0.9 2.6 0.00 0.01 0.00 84 1019.2
20260506100003 53 267 0.0 2.6 0.00 0.01 0.00 84 1019.2
20260506095503 53 285 0.0 0.9 0.00 0.01 0.00 84 1019.3
20260506095003 53 286 0.0 1.7 0.00 0.01 0.00 84 1019.3
20260506094524 53 290 0.0 1.7 0.00 0.01 0.00 84 1019.3
20260506094003 53 285 0.0 1.7 0.00 0.01 0.00 84 1019.3
20260506093503 53 274 0.0 1.7 0.00 0.01 0.00 84 1019.3
20260506093003 53 241 0.9 1.7 0.00 0.01 0.00 84 1019.3
20260506092503 53 231 0.9 2.6 0.00 0.01 0.00 84 1019.2
20260506092003 54 234 0.9 2.6 0.00 0.01 0.00 84 1019.2
20260506091524 54 250 0.9 3.5 0.00 0.01 0.00 84 1019.1
20260506091003 54 254 1.7 3.5 0.00 0.01 0.00 84 1019.1
20260506090503 54 253 0.9 2.6 0.00 0.01 0.00 84 1019.2
20260506090003 54 268 0.9 2.6 0.00 0.01 0.00 84 1019.2
20260506085503 54 287 0.9 3.5 0.00 0.01 0.00 84 1019.2
20260506085003 54 287 0.9 3.5 0.00 0.01 0.00 84 1019.2
20260506084503 54 281 0.9 4.3 0.00 0.01 0.00 84 1019.2
20260506084003 54 257 1.7 4.3 0.00 0.01 0.00 84 1019.2
20260506083503 54 251 1.7 5.2 0.00 0.01 0.00 84 1019.2
20260506083003 54 249 1.7 5.2 0.00 0.01 0.00 84 1019.2
20260506082503 54 252 1.7 5.2 0.00 0.01 0.00 84 1019.3
20260506082003 54 253 0.9 5.2 0.00 0.01 0.00 84 1019.3
20260506081503 54 256 1.7 4.3 0.00 0.01 0.00 84 1019.3
20260506081003 54 262 1.7 4.3 0.00 0.01 0.00 84 1019.3
20260506080503 54 263 1.7 3.5 0.00 0.01 0.00 84 1019.3
20260506073503 54 273 0.9 4.3 0.00 0.01 0.00 83 1019.0
20260506073003 54 277 0.9 4.3 0.00 0.01 0.00 83 1019.0
20260506072503 54 281 0.9 4.3 0.00 0.01 0.00 83 1019.0
20260506072003 55 277 0.9 4.3 0.00 0.01 0.00 83 1019.0
20260506071503 55 283 0.9 4.3 0.00 0.02 0.00 83 1019.0
20260506071003 55 291 0.9 3.5 0.00 0.02 0.00 83 1019.0
20260506070503 55 284 1.7 6.1 0.00 0.02 0.00 83 1019.0
20260506062503 55 271 1.7 5.2 0.00 0.02 0.02 83 1018.6
20260506062024 55 263 1.7 4.3 0.00 0.02 0.02 83 1018.5
20260506061503 55 264 1.7 5.2 0.00 0.02 0.02 83 1018.5
20260506061024 55 268 1.7 6.1 0.00 0.02 0.02 83 1018.5
20260506060503 55 271 1.7 6.1 0.00 0.02 0.02 83 1018.5
20260506051003 56 251 1.7 6.1 0.00 0.02 0.02 83 1018.3
20260506050503 56 250 2.6 6.1 0.00 0.02 0.02 83 1018.3
20260506045003 56 254 1.7 3.5 0.00 0.02 0.02 83 1018.0
20260506044503 56 256 1.7 3.5 0.00 0.02 0.02 83 1018.0
20260506044003 56 248 1.7 6.1 0.00 0.02 0.02 83 1018.0
20260506043503 56 244 1.7 6.1 0.00 0.02 0.02 83 1018.0
20260506043003 56 257 1.7 4.3 0.00 0.02 0.02 83 1017.9
20260506042503 56 250 1.7 5.2 0.00 0.02 0.02 83 1017.9
20260506042003 56 242 2.6 7.0 0.00 0.02 0.02 83 1017.8
20260506041503 56 241 3.5 7.0 0.00 0.02 0.02 83 1017.8
20260506041003 56 252 2.6 8.7 0.00 0.02 0.02 83 1017.6
20260506040503 56 253 3.5 8.7 0.00 0.02 0.02 83 1017.5
20260506040003 56 247 3.5 8.7 0.00 0.02 0.02 83 1017.4
20260506035503 56 249 3.5 8.7 0.00 0.02 0.02 83 1017.4
20260506035003 56 249 3.5 8.7 0.00 0.02 0.02 83 1017.3
20260506034503 56 247 4.3 8.7 0.00 0.02 0.02 83 1017.3
20260506034024 56 243 5.2 9.6 0.00 0.02 0.02 83 1017.2
20260506033503 56 242 3.5 9.6 0.00 0.02 0.02 83 1017.1
20260506033003 56 247 3.5 8.7 0.00 0.02 0.02 83 1017.1
20260506032503 56 243 3.5 8.7 0.00 0.02 0.02 83 1017.0
20260506032003 56 236 3.5 7.8 0.00 0.02 0.02 83 1017.1
20260506031524 56 241 4.3 10.4 0.00 0.02 0.02 83 1016.9
20260506031003 56 245 5.2 10.4 0.00 0.02 0.02 83 1016.9
20260506030503 56 244 4.3 10.4 0.00 0.02 0.02 83 1016.8
20260506030003 56 241 3.5 7.8 0.00 0.02 0.02 82 1016.8
20260506025503 56 240 3.5 7.8 0.00 0.02 0.02 82 1016.6
20260506025003 56 241 3.5 8.7 0.00 0.02 0.02 82 1016.6
20260506024503 56 245 4.3 8.7 0.00 0.02 0.02 82 1016.7
20260506024003 56 244 4.3 10.4 0.00 0.02 0.02 82 1016.8
20260506023503 56 239 4.3 10.4 0.00 0.02 0.02 81 1016.6
20260506023003 57 238 3.5 7.8 0.00 0.02 0.02 82 1016.5
20260506022524 57 245 4.3 10.4 0.00 0.02 0.02 82 1016.5
20260506022003 57 246 4.3 10.4 0.00 0.02 0.02 81 1016.3
20260506021503 57 241 4.3 10.4 0.00 0.02 0.02 81 1016.3
20260506021003 57 240 5.2 10.4 0.00 0.02 0.02 81 1016.3
20260506020503 57 239 5.2 10.4 0.00 0.02 0.02 80 1016.2
20260506020003 58 236 5.2 10.4 0.00 0.02 0.02 79 1016.2
20260506015524 58 242 5.2 11.3 0.00 0.02 0.02 78 1016.2
20260506015003 57 243 5.2 11.3 0.00 0.02 0.02 77 1016.2
20260506014503 58 241 5.2 10.4 0.00 0.02 0.02 78 1016.3
20260506014003 58 241 5.2 10.4 0.00 0.02 0.02 77 1016.3
20260506013524 59 244 4.3 10.4 0.00 0.02 0.02 76 1016.3
20260506013003 58 246 5.2 10.4 0.00 0.02 0.02 75 1016.3
20260506012503 59 243 4.3 9.6 0.00 0.02 0.02 75 1016.4
20260506012003 59 241 4.3 9.6 0.00 0.02 0.02 74 1016.3
20260506011504 59 239 4.3 9.6 0.00 0.02 0.02 73 1016.3
20260506011024 60 242 4.3 10.4 0.00 0.02 0.02 73 1016.2
20260506010503 60 249 5.2 10.4 0.00 0.02 0.02 72 1016.3
20260506010003 60 254 5.2 10.4 0.00 0.02 0.02 70 1016.2
20260506005524 60 246 5.2 10.4 0.00 0.02 0.02 71 1016.2
20260506005003 61 239 5.2 9.6 0.00 0.02 0.02 71 1016.2
20260506004504 61 246 4.3 11.3 0.00 0.02 0.02 71 1016.2
20260506004003 62 240 4.3 11.3 0.00 0.02 0.02 71 1016.0
20260506003503 62 235 5.2 11.3 0.00 0.02 0.02 71 1016.0
20260506003003 62 242 5.2 11.3 0.00 0.02 0.02 72 1016.0
20260506002503 61 245 6.1 11.3 0.00 0.02 0.02 72 1015.9
20260506002024 61 245 7.0 13.9 0.00 0.02 0.02 72 1016.0
20260506001503 61 244 7.0 13.9 0.00 0.02 0.02 73 1015.9
20260506001003 60 239 7.0 13.0 0.00 0.02 0.02 72 1015.8
20260506000503 60 240 6.1 14.8 0.00 0.02 0.02 73 1015.9
20260506000003 61 243 5.2 14.8 0.00 0.02 0.02 72 1015.9
20260505235503 61 244 6.1 12.2 0.00 0.02 0.02 72 1015.9
20260505235024 61 245 7.0 14.8 0.00 0.02 0.02 73 1015.9
20260505234503 61 244 7.0 14.8 0.00 0.02 0.02 72 1015.9
20260505234003 61 242 6.1 13.0 0.00 0.02 0.02 72 1016.0
20260505233503 61 242 7.0 12.2 0.00 0.02 0.02 72 1016.0
20260505233003 61 246 7.0 13.0 0.00 0.02 0.02 71 1016.0
20260505232503 62 246 7.0 13.0 0.00 0.02 0.02 70 1016.0
20260505232003 62 242 6.1 13.0 0.00 0.02 0.02 69 1016.0
20260505231503 63 235 5.2 12.2 0.00 0.02 0.02 68 1015.9
20260505231003 64 235 5.2 11.3 0.00 0.02 0.02 68 1015.9
20260505230524 63 245 6.1 11.3 0.00 0.02 0.02 68 1015.9
20260505230003 63 245 6.1 12.2 0.00 0.02 0.02 67 1015.9
20260505225503 65 240 6.1 11.3 0.00 0.02 0.02 67 1015.9
20260505225003 65 246 7.0 13.0 0.00 0.02 0.02 69 1015.8
20260505224503 64 248 7.0 14.8 0.00 0.02 0.02 69 1015.9
20260505224003 63 245 7.0 14.8 0.00 0.02 0.02 71 1015.9
20260505223524 62 240 6.1 13.9 0.00 0.02 0.02 73 1015.9
20260505223003 62 237 7.0 13.9 0.00 0.02 0.02 72 1016.0
20260505222503 62 232 5.2 13.0 0.00 0.02 0.02 71 1016.0
20260505222003 63 235 5.2 13.0 0.00 0.02 0.02 72 1016.1
20260505221503 62 240 6.1 13.0 0.00 0.02 0.02 72 1016.0
20260505221003 62 241 5.2 12.2 0.00 0.02 0.02 72 1016.2
20260505220503 62 241 5.2 11.3 0.00 0.02 0.02 72 1016.1
20260505220003 62 239 6.1 12.2 0.00 0.02 0.02 72 1016.2
20260505215503 62 241 6.1 12.2 0.00 0.02 0.02 71 1016.2
20260505215003 62 239 5.2 11.3 0.00 0.02 0.02 71 1016.2
20260505214503 62 239 5.2 13.0 0.00 0.02 0.02 71 1016.2
20260505214003 62 239 6.1 13.0 0.00 0.02 0.02 72 1016.3
20260505213503 62 235 6.1 13.0 0.00 0.02 0.02 72 1016.3
20260505213003 62 232 6.1 13.0 0.00 0.02 0.02 71 1016.3
20260505212524 63 226 6.1 12.2 0.00 0.02 0.02 70 1016.3
20260505212003 64 223 5.2 12.2 0.00 0.02 0.02 70 1016.3
20260505211503 64 231 5.2 11.3 0.00 0.02 0.02 68 1016.4
20260505211003 64 241 5.2 11.3 0.00 0.02 0.02 68 1016.3
20260505210503 65 246 5.2 11.3 0.00 0.02 0.02 69 1016.3
20260505210003 63 244 6.1 13.9 0.00 0.02 0.02 70 1016.4
20260505205503 62 241 6.1 13.9 0.00 0.02 0.02 71 1016.3
20260505205003 62 245 6.1 12.2 0.00 0.02 0.02 70 1016.3
20260505204524 62 254 5.2 12.2 0.00 0.02 0.02 71 1016.4
20260505204024 62 253 5.2 12.2 0.00 0.02 0.02 70 1016.3
20260505203503 64 250 5.2 11.3 0.00 0.02 0.02 70 1016.3
20260505203003 64 249 6.1 11.3 0.00 0.02 0.02 68 1016.4
20260505202503 65 243 5.2 12.2 0.00 0.02 0.02 67 1016.3
20260505202003 66 237 4.3 12.2 0.00 0.02 0.02 66 1016.3
20260505201503 67 241 5.2 10.4 0.00 0.02 0.02 68 1016.3
20260505201003 65 248 6.1 13.0 0.00 0.02 0.02 68 1016.3
20260505200503 64 245 7.0 13.0 0.00 0.02 0.02 67 1016.3
20260505200003 65 245 5.2 12.2 0.00 0.02 0.02 67 1016.3
20260505195503 65 251 5.2 13.9 0.00 0.02 0.02 68 1016.4
20260505195024 64 247 6.1 13.9 0.00 0.02 0.02 69 1016.5
20260505194524 64 250 6.1 12.2 0.00 0.02 0.02 68 1016.5
20260505194003 64 248 5.2 11.3 0.00 0.02 0.02 70 1016.5
20260505193503 64 246 6.1 13.9 0.00 0.02 0.02 72 1016.5
20260505193003 62 241 6.1 13.9 0.00 0.02 0.02 71 1016.5
20260505192503 62 243 5.2 11.3 0.00 0.02 0.02 72 1016.6
20260505192003 62 249 6.1 11.3 0.00 0.02 0.02 73 1016.5
20260505191503 62 241 6.1 11.3 0.00 0.02 0.02 74 1016.5
20260505191003 62 236 5.2 11.3 0.00 0.02 0.02 75 1016.5
20260505190503 61 240 5.2 12.2 0.00 0.02 0.02 76 1016.4
20260505190003 61 240 6.1 12.2 0.00 0.02 0.02 78 1016.3
20260505185503 60 242 6.1 12.2 0.00 0.02 0.02 78 1016.4
20260505185003 60 244 5.2 12.2 0.00 0.02 0.02 77 1016.3
20260505184524 60 240 5.2 13.0 0.00 0.02 0.02 77 1016.3
20260505184003 60 244 5.2 13.0 0.00 0.02 0.02 77 1016.3
20260505183503 60 257 4.3 11.3 0.00 0.02 0.02 77 1016.4
20260505183003 61 257 4.3 11.3 0.00 0.02 0.02 77 1016.4
20260505182503 61 248 3.5 10.4 0.00 0.02 0.02 79 1016.6
20260505182003 60 238 3.5 7.8 0.00 0.02 0.02 79 1016.4
20260505181503 60 235 4.3 10.4 0.00 0.02 0.02 79 1016.4
20260505181003 61 240 3.5 10.4 0.00 0.02 0.02 79 1016.3
20260505180503 60 248 3.5 8.7 0.00 0.02 0.02 82 1016.2
20260505180003 59 243 3.5 8.7 0.00 0.02 0.02 83 1016.2
20260505175524 59 246 3.5 7.8 0.00 0.02 0.02 84 1016.2
20260505175003 58 250 3.5 7.8 0.00 0.02 0.02 84 1016.2
20260505174503 58 249 3.5 7.8 0.00 0.02 0.02 85 1016.1
20260505174003 58 253 3.5 7.8 0.00 0.02 0.02 86 1016.0
20260505173524 57 255 3.5 7.8 0.00 0.02 0.02 86 1016.1
20260505173003 57 252 2.6 7.8 0.00 0.02 0.02 87 1016.1
20260505172524 57 247 2.6 7.0 0.00 0.02 0.02 87 1016.1
20260505172003 56 250 3.5 8.7 0.00 0.02 0.02 87 1016.1
20260505171503 56 250 3.5 9.6 0.00 0.02 0.02 87 1016.1
20260505171024 56 249 3.5 9.6 0.00 0.02 0.02 88 1016.0
20260505170503 56 245 3.5 10.4 0.00 0.02 0.02 88 1016.0
20260505170024 56 244 3.5 10.4 0.00 0.02 0.02 88 1016.0
20260505165503 56 252 2.6 7.8 0.00 0.02 0.02 88 1016.0
20260505165003 56 254 2.6 6.1 0.00 0.02 0.02 89 1016.0
20260505164524 56 255 2.6 6.1 0.00 0.02 0.02 89 1016.0
20260505164024 56 253 2.6 7.8 0.00 0.02 0.02 89 1016.0
20260505163503 56 256 2.6 7.8 0.00 0.02 0.02 89 1016.0
20260505163003 55 264 2.6 7.8 0.00 0.02 0.02 89 1016.0
20260505162503 55 261 3.5 7.8 0.00 0.02 0.02 89 1016.0
20260505162003 55 256 3.5 7.8 0.00 0.02 0.02 89 1015.9
20260505161503 55 253 2.6 7.8 0.00 0.02 0.02 89 1015.9
20260505161003 55 255 1.7 5.2 0.00 0.02 0.02 89 1015.8
20260505160503 55 249 2.6 7.0 0.00 0.02 0.02 89 1015.8
20260505153003 54 250 3.5 8.7 0.00 0.02 0.02 88 1015.6
20260505152503 54 252 4.3 8.7 0.00 0.02 0.02 88 1015.5
20260505152024 54 255 3.5 7.8 0.00 0.02 0.02 88 1015.5
20260505151503 54 255 4.3 12.2 0.00 0.02 0.02 88 1015.6
20260505151003 54 255 4.3 12.2 0.00 0.02 0.02 88 1015.5
20260505150503 54 255 3.5 7.8 0.00 0.02 0.02 88 1015.4
20260505140503 53 244 3.5 7.0 0.00 0.02 0.02 88 1015.0
20260505125003 52 244 4.3 8.7 0.01 0.02 0.02 87 1014.8
20260505124503 52 249 4.3 8.7 0.01 0.02 0.02 87 1014.8
20260505124024 52 252 3.5 8.7 0.01 0.02 0.02 87 1014.8
20260505123524 52 250 3.5 7.8 0.01 0.02 0.02 87 1014.7
20260505123024 52 251 3.5 7.8 0.00 0.01 0.01 87 1014.7
20260505122503 52 251 4.3 9.6 0.00 0.01 0.01 87 1014.7
20260505122003 52 252 3.5 9.6 0.00 0.01 0.01 87 1014.7
20260505121503 52 254 4.3 8.7 0.00 0.01 0.01 87 1014.7
20260505121024 52 250 4.3 8.7 0.00 0.01 0.01 87 1014.8
20260505120524 52 243 5.2 8.7 0.00 0.01 0.01 87 1014.6
20260505120004 52 243 4.3 8.7 0.00 0.01 0.01 87 1014.6
20260505115524 52 246 3.5 7.8 0.00 0.01 0.01 87 1014.7
20260505115003 52 247 4.3 7.8 0.00 0.01 0.01 87 1014.7
20260505114503 52 245 3.5 7.8 0.00 0.01 0.01 87 1014.7
20260505114003 51 243 3.5 7.8 0.00 0.01 0.01 87 1014.7
20260505113503 51 243 3.5 7.8 0.00 0.01 0.01 87 1014.8
20260505113003 51 243 3.5 7.0 0.00 0.01 0.01 87 1014.9
20260505112503 51 246 3.5 7.0 0.00 0.01 0.01 87 1014.9
20260505112003 51 252 3.5 8.7 0.00 0.01 0.01 87 1014.9
20260505111524 51 249 4.3 8.7 0.00 0.01 0.01 86 1014.9
20260505111003 51 243 3.5 7.8 0.00 0.01 0.01 86 1014.7
20260505110503 51 242 3.5 7.8 0.00 0.01 0.01 86 1014.8